Date,TemperatureHighF,TemperatureAvgF,TemperatureLowF,DewpointHighF,DewpointAvgF,DewpointLowF,HumidityHigh,HumidityAvg,HumidityLow,PressureMaxIn,PressureMinIn,WindSpeedMaxMPH,WindSpeedAvgMPH,GustSpeedMaxMPH,PrecipitationSumIn
2013-9-1,82.2,74.3,67.1,70.9,62.6,52.9,98,71,39,29.84,29.57,21,1,35,0.51
2013-9-2,81.1,68.7,59.3,61.5,55.1,39.8,96,67,27,29.96,29.84,10,1,10,0.00
2013-9-3,86.5,69.8,55.9,61.5,58.4,55.1,98,71,37,29.97,29.86,13,0,13,0.00
2013-9-4,86.1,74.3,66.8,64.6,61.6,55.5,84,66,39,30.01,29.87,10,0,10,0.00
2013-9-5,82.6,73.3,66.8,68.7,65.5,61.9,97,78,55,30.05,29.93,12,0,12,0.18
2013-9-6,91.4,77.7,66.1,70.5,66.0,61.2,87,69,47,29.94,29.73,19,1,19,0.01
2013-9-7,90.1,79.1,70.6,72.6,68.0,63.7,86,70,43,29.75,29.67,11,1,11,0.00
2013-9-8,93.6,80.2,70.6,73.8,71.4,67.5,96,77,43,29.75,29.61,11,0,11,0.00
2013-9-9,98.5,84.7,75.1,72.1,60.0,49.3,89,47,20,29.66,29.59,22,4,22,0.00
2013-9-10,96.8,79.2,66.8,69.4,62.4,56.1,93,60,27,29.89,29.67,17,2,17,0.09
2013-9-11,82.4,73.8,68.8,72.0,68.5,63.2,98,85,58,29.95,29.87,14,0,14,0.56
2013-9-12,79.0,71.7,63.7,69.5,54.8,40.8,94,59,28,30.07,29.94,14,2,14,0.00
2013-9-13,75.1,64.3,55.7,52.7,49.8,44.7,84,61,37,30.09,29.94,10,0,10,0.00
2013-9-14,77.2,64.5,51.6,54.2,51.2,47.5,90,65,39,29.94,29.72,19,1,19,0.00
2013-9-15,69.1,64.9,61.8,65.2,57.5,51.1,98,78,55,30.10,29.70,16,3,16,0.47
2013-9-16,67.9,61.3,55.6,55.5,53.3,50.4,92,75,59,30.19,30.07,14,2,14,0.00
2013-9-17,73.2,63.7,57.2,68.2,61.8,55.1,99,94,84,30.07,29.74,16,0,16,0.16
2013-9-18,91.4,77.7,66.4,69.7,66.1,61.1,95,71,39,29.75,29.52,23,4,23,0.00
2013-9-19,82.0,72.1,60.4,67.6,61.9,48.0,95,71,52,29.85,29.54,20,2,20,0.17
2013-9-20,71.1,60.1,52.0,52.3,46.2,38.8,83,62,32,29.95,29.83,11,0,11,0.00
2013-9-21,77.0,59.5,44.9,52.5,47.6,43.2,97,70,33,29.92,29.73,10,0,10,0.00
2013-9-22,81.8,65.7,52.3,56.4,51.1,45.8,95,64,29,29.77,29.66,23,2,23,0.00
2013-9-23,78.3,64.8,52.3,54.1,50.3,45.6,92,63,33,29.71,29.57,22,2,22,0.00
2013-9-24,70.8,65.0,59.6,57.6,55.6,51.0,91,72,59,29.76,29.55,14,1,14,0.00
2013-9-25,81.2,65.9,54.1,60.0,56.6,53.3,98,76,40,29.78,29.60,15,0,15,0.00
2013-9-26,86.7,72.1,59.9,61.6,58.0,54.4,95,65,34,29.67,29.57,30,1,30,0.00
2013-9-27,88.8,76.3,69.1,61.3,58.5,51.3,74,56,28,29.68,29.59,27,3,27,0.00
2013-9-28,73.3,62.9,50.5,65.1,51.1,38.9,97,68,35,29.94,29.49,22,1,22,0.28
2013-9-29,79.0,60.3,44.5,48.4,43.1,37.0,97,61,24,29.95,29.75,20,2,20,0.00
2013-9-30,82.2,65.4,51.7,52.3,48.3,43.6,88,58,27,29.75,29.56,20,2,20,0.00